This is the latest recevied weather packets stored in our database for station/object N3TJJ-2. If no packets are shown the sender has not sent any weather packets the latest 1 day(s).
| Time | Temp. | Humidity | Pressure | Rain* | Wind** | Luminosity | Snow |
|---|---|---|---|---|---|---|---|
| 1777994599 | 25° C | 46% | 1011.6 hPa | 0 mm | 7.6 m/s, 93° | - | - |
| 1777994237 | 25° C | 46% | 1011.6 hPa | 0 mm | 6.71 m/s, 98° | - | - |
| 1777993875 | 25° C | 47% | 1011.6 hPa | 0 mm | 6.26 m/s, 92° | - | - |
| 1777993516 | 25° C | 48% | 1011.5 hPa | 0 mm | 7.15 m/s, 93° | - | - |
| 1777993155 | 24.44° C | 48% | 1011.6 hPa | 0 mm | 5.81 m/s, 92° | - | - |
| 1777992795 | 24.44° C | 47% | 1011.7 hPa | 0 mm | 7.6 m/s, 92° | - | - |
| 1777992446 | 24.44° C | 49% | 1011.7 hPa | 0 mm | 6.26 m/s, 91° | - | - |
| 1777992087 | 23.89° C | 51% | 1011.7 hPa | 0 mm | 4.02 m/s, 93° | - | - |
| 1777991724 | 23.89° C | 52% | 1011.7 hPa | 0 mm | 3.58 m/s, 70° | - | - |
| 1777991356 | 23.33° C | 53% | 1011.8 hPa | 0 mm | 3.13 m/s, 75° | - | - |
| 1777991038 | 23.33° C | 53% | 1011.9 hPa | 0 mm | 4.02 m/s, 90° | - | - |
| 1777990637 | 22.78° C | 56% | 1011.9 hPa | 0 mm | 2.68 m/s, 81° | - | - |
| 1777990286 | 22.22° C | 56% | 1011.9 hPa | 0 mm | 3.58 m/s, 90° | - | - |
| 1777989920 | 22.22° C | 57% | 1012.1 hPa | 0 mm | 3.13 m/s, 85° | - | - |
| 1777989555 | 22.22° C | 57% | 1012.2 hPa | 0 mm | 3.13 m/s, 83° | - | - |
| 1777989195 | 21.67° C | 57% | 1012.1 hPa | 0 mm | 2.68 m/s, 81° | - | - |
| 1777988835 | 21.67° C | 58% | 1012.2 hPa | 0 mm | 2.68 m/s, 69° | - | - |
| 1777988475 | 21.11° C | 59% | 1012.4 hPa | 0 mm | 2.24 m/s, 80° | - | - |
| 1777988130 | 20.56° C | 59% | 1012.5 hPa | 0 mm | 3.58 m/s, 85° | - | - |
| 1777987755 | 20° C | 60% | 1012.6 hPa | 0 mm | 3.58 m/s, 88° | - | - |
| 1777987395 | 20° C | 60% | 1012.7 hPa | 0 mm | 4.92 m/s, 88° | - | - |
| 1777987036 | 20° C | 61% | 1012.8 hPa | 0 mm | 3.13 m/s, 62° | - | - |
| 1777986733 | 19.44° C | 62% | 1012.8 hPa | 0 mm | 3.58 m/s, 84° | - | - |
| 1777986676 | 19.44° C | 62% | 1012.8 hPa | 0 mm | 3.58 m/s, 84° | - | - |
| 1777986317 | 18.89° C | 63% | 1012.9 hPa | 0 mm | 3.13 m/s, 83° | - | - |
* Rain latest hour (hover to see other rain measurements)
** Current wind speed in m/s (hover to see current wind gust speed)